Grove City (29D)
Grove City, PA
Field Elevation: 1371
Lat: 41°08.00N  Long: 80°10.00W
CTAF/Unicom Freq: 122.7000
   
     For Weather-by-Phone, call 724 748-3504
Weather Advisories
7/24/2014 17:43 Z
Altimeter 30.05" Hg
Wind 010° @ 5 KT
Gusts --
Visibility 10 SM
Temperature 21° C (70° F)
Dewpoint 12° C (54° F)
Relative Humidity 56%
Density Altitude --
Condensation Altitude 5,800 feet
  Wind and Runways
Indicated Runway = 10
History
 
 
More Info
All DigiWx sites map
NOAA Forecast
 
Airport IQ 5010
(LHV) Lock Haven
(74PN) Altoona Regional
 
about DigiWx
 
FAA Disclaimer: The data displayed is for advisory purposes only and is not to be used for flight planning or operations. For official data, please call 724 748-3504 to hear the current automated AWOS voice message.
  METAR 29D 241743Z AUTO 01005KT 10SM 21/12 A3005